Weather History for KYNG - April, 2013

Change the Weather History Date:

Tuesday, April 16, 2013

  Actual Average Record
Temperature  
Mean Temperature 61 °F 49 °F  
Max Temperature 73 °F 59 °F 85 °F (2002)
Min Temperature 49 °F 38 °F 18 °F (2014)
Degree Days  
Heating Degree Days 4 16  
Month to date heating degree days 303 307  
Since 1 July heating degree days 5719 5831  
Cooling Degree Days 0 0  
Month to date cooling degree days 0 0  
Year to date cooling degree days 0 1  
Growing Degree Days 10 (Base 50)    
Moisture  
Dew Point 51 °F    
Average Humidity 79    
Maximum Humidity 100    
Minimum Humidity 57    
Precipitation  
Precipitation 0.04 in 0.12 in - ()
Month to date precipitation 1.83 1.85  
Year to date precipitation 8.84 9.49  
Snow  
Snow 0.00 in 0.10 in - ()
Month to date snowfall 0.6 2.5  
Since 1 July snowfall 80.9 62.2  
Snow Depth 0.00 in    
Sea Level Pressure  
Sea Level Pressure 30.08 in    
Wind  
Wind Speed 10 mph (SSW)    
Max Wind Speed 23 mph    
Max Gust Speed 30 mph    
Visibility 9 miles    
Events Fog , Rain    
T = Trace of Precipitation, MM = Missing Value Source: NWS Daily Summary

Daily Weather History Graph

Daily Weather History Graph

Search for Another Location

Airport or City:

Trip Planner

Search our weather history database for the weather conditions in past years. The results will help you decide how hot, cold, wet, or windy it might be!

Date:

Astronomy

Apr. 16, 2013 Rise Set
Actual Time 6:41 AM EDT 8:04 PM EDT
Civil Twilight 6:12 AM EDT 8:32 PM EDT
Nautical Twilight 5:38 AM EDT 9:07 PM EDT
Astronomical Twilight 5:01 AM EDT 9:44 PM EDT
Moon 10:57 AM EDT (4/16) 1:01 AM EDT (4/16)
Length of Visible Light 14h 20m
Length of Day
13h 22m
Waxing Crescent, 33% of the Moon is Illuminated
Apr 16
Waxing Crescent
Apr 18
First Quarter
Apr 25
Full
May 2
Last Quarter
May 9
New

Hourly Weather History & Observations

Time (EDT) Temp. Dew Point Humidity Pressure Visibility Wind Dir Wind Speed Gust Speed Precip Events Conditions
12:51 AM 57.9 °F 46.0 °F 65% 30.04 in 10.0 mi SE 11.5 mph - N/A   Partly Cloudy
1:51 AM 57.0 °F 46.0 °F 67% 30.03 in 10.0 mi SSE 11.5 mph 19.6 mph N/A   Scattered Clouds
2:51 AM 55.9 °F 46.0 °F 69% 30.01 in 10.0 mi SE 12.7 mph - N/A   Scattered Clouds
3:51 AM 55.9 °F 46.9 °F 72% 30.01 in 10.0 mi SSE 8.1 mph - N/A   Partly Cloudy
4:51 AM 55.0 °F 46.9 °F 74% 30.01 in 10.0 mi SE 13.8 mph 18.4 mph N/A   Partly Cloudy
5:51 AM 55.9 °F 46.9 °F 72% 30.02 in 10.0 mi SSE 13.8 mph 20.7 mph N/A   Mostly Cloudy
6:51 AM 55.9 °F 48.0 °F 75% 30.04 in 10.0 mi South 13.8 mph 25.3 mph N/A   Scattered Clouds
7:51 AM 57.0 °F 48.9 °F 74% 30.05 in 10.0 mi South 10.4 mph - N/A   Overcast
8:51 AM 59.0 °F 50.0 °F 72% 30.05 in 10.0 mi South 12.7 mph 20.7 mph N/A   Overcast
9:51 AM 62.1 °F 52.0 °F 70% 30.08 in 10.0 mi SW 11.5 mph - N/A   Overcast
10:39 AM 62.6 °F 53.6 °F 72% 30.09 in 10.0 mi SW 11.5 mph 20.7 mph N/A   Overcast
10:51 AM 64.0 °F 53.1 °F 67% 30.08 in 10.0 mi SW 12.7 mph - 0.00 in Rain Light Rain
11:10 AM 62.6 °F 53.6 °F 72% 30.09 in 7.0 mi SSW 8.1 mph - 0.00 in Rain Light Rain
11:51 AM 62.1 °F 55.9 °F 80% 30.09 in 10.0 mi SSW 8.1 mph - 0.02 in   Overcast
12:23 PM 64.4 °F 55.4 °F 73% 30.09 in 10.0 mi SW 15.0 mph 29.9 mph N/A   Overcast
12:51 PM 66.0 °F 55.9 °F 70% 30.07 in 10.0 mi SW 13.8 mph - N/A   Overcast
1:07 PM 69.8 °F 57.2 °F 64% 30.06 in 10.0 mi SSW 11.5 mph 21.9 mph N/A   Overcast
1:51 PM 69.1 °F 55.9 °F 63% 30.04 in 10.0 mi SSW 10.4 mph 24.2 mph 0.00 in Rain Light Rain
2:51 PM 72.0 °F 57.0 °F 59% 30.05 in 10.0 mi SW 12.7 mph 18.4 mph 0.00 in   Overcast
3:51 PM 71.1 °F 55.9 °F 59% 30.04 in 10.0 mi SW 13.8 mph - N/A   Overcast
4:51 PM 70.0 °F 57.9 °F 65% 30.06 in 10.0 mi NNW 12.7 mph - N/A   Overcast
4:53 PM 69.8 °F 57.2 °F 64% 30.07 in 10.0 mi NNW 13.8 mph - N/A   Overcast
5:51 PM 59.0 °F 53.1 °F 81% 30.12 in 9.0 mi NW 18.4 mph 26.5 mph N/A   Overcast
6:51 PM 55.0 °F 48.9 °F 80% 30.16 in 10.0 mi NW 11.5 mph - N/A   Overcast
7:35 PM 53.6 °F 48.2 °F 82% 30.16 in 10.0 mi NNW 9.2 mph - 0.00 in   Overcast
7:51 PM 53.1 °F 48.0 °F 83% 30.17 in 10.0 mi NNW 8.1 mph - 0.00 in   Overcast
8:51 PM 52.0 °F 48.9 °F 89% 30.18 in 7.0 mi North 4.6 mph - 0.02 in Rain Light Rain
9:51 PM 51.1 °F 48.9 °F 92% 30.21 in 5.0 mi Calm Calm - 0.00 in   Overcast
10:51 PM 48.9 °F 48.0 °F 97% 30.18 in 5.0 mi East 4.6 mph - N/A Fog Shallow Fog
11:51 PM 48.9 °F 46.9 °F 93% 30.20 in 5.0 mi NNE 4.6 mph - N/A   Mostly Cloudy